[[{"header":{"parameterUnit":"m.s-1","parameterCategory":2,"la1":30.2991,"la2":30.254,"lo1":-89.0895,"lo2":-89.0444,"dy":0.0017,"dx":0.0017,"nx":28,"ny":28,"refTime":"2025-11-30T03:00:00:Z","depth":"0","parameterNumber":2,"parameterNumberName":"U-component_of_CURRENTS"},"data":[0,0,0,0,0,0,0,0,0,0,0,0,0,0,0,0,0,0,0,0,0,0,0,0,0,0,0,0,0,0,0,0,0,0,0,0,0,0,0,0,0,0,0,0,0,0,0,0,0,0,0,0,0,0,0,0,0,0,0.1666,0.1666,0,0.1685,0.1685,0.1685,0.169,0.1691,0.1691,0.1691,0.1661,0.166,0.1659,0,0,0,0,0,0,0,0,0,0,0,0,0,0.1632,0.1632,0.1666,0.1666,0.1667,0.1685,0.1685,0.1685,0.169,0.1691,0.1691,0.1691,0.1661,0.166,0.1659,0,0,0,0,0,0,0,0,0,0,0,0,0,0.1645,0.1632,0.1666,0.1674,0.1675,0.1685,0.1685,0.1685,0.169,0.1691,0.1691,0.1691,0.1662,0.166,0.1659,0.1643,0,0,0.1654,0.1654,0,0,0,0,0,0,0,0,0.1644,0.1646,0.1672,0.1674,0.1675,0.1688,0.1662,0.167,0.169,0.1681,0.1691,0.1691,0.1668,0.1666,0.1664,0.1642,0.1641,0.1654,0.1653,0.1653,0.1652,0,0,0,0,0,0,0,0.1644,0.1645,0.167,0.1673,0.1675,0.1677,0.1679,0.1663,0.1669,0.1682,0.1683,0.1691,0.1668,0.1666,0.1664,0.164,0.1654,0.1653,0.1652,0.1651,0.1652,0.1653,0,0,0,0,0,0,0.1648,0.1644,0.1669,0.1671,0.1664,0.1677,0.1679,0.1681,0.167,0.167,0.169,0.1691,0.1668,0.1665,0.1663,0.1689,0.1653,0.1651,0.165,0.1651,0.1652,0.1653,0,0,0,0,0,0,0.1647,0.165,0.1669,0.1661,0.1664,0.1678,0.168,0.1681,0.1684,0.1678,0.1676,0.1692,0.1668,0.1665,0.166,0.1686,0.1651,0.1649,0.165,0.1652,0.1653,0.1712,0,0,0,0,0,0,0.1646,0.1649,0.1646,0.1661,0.1665,0.1679,0.168,0.1682,0.1689,0.169,0.1678,0.1676,0.1668,0.1663,0.1659,0.1683,0.1648,0.1649,0.1651,0.1652,0.1709,0.1715,0.1721,0,0,0,0,0,0.1644,0.1642,0.1645,0.1649,0.1662,0.168,0.1681,0.169,0.1689,0.1692,0.1688,0.1676,0.1671,0.1662,0.1657,0.1682,0.1648,0.165,0.1652,0.1706,0.1714,0.172,0,0,0,0,0,0,0.1621,0.1644,0.1647,0.165,0.1666,0.1682,0.1686,0.169,0.1689,0.169,0.1679,0.1676,0.1685,0.1671,0.1661,0.1688,0.1661,0.1662,0.1704,0.1711,0.1717,0.1715,0.1647,0,0,0,0,0,0.1616,0.1623,0.1645,0.1646,0.1656,0.167,0.1676,0.1685,0.1691,0.1691,0.1686,0.1683,0.1689,0.1689,0.1685,0.169,0.1693,0.1706,0.1712,0.1717,0.1714,0.1748,0.1756,0.166,0.166,0.166,0,0,0.1607,0.1621,0.1623,0.1642,0.1654,0.1673,0.1673,0.1689,0.1706,0.1686,0.1698,0.1698,0.1694,0.171,0.1714,0.1702,0.1749,0.172,0.1724,0.1718,0.1751,0.176,0.1769,0.1661,0.1661,0.1661,0,0,0.1604,0.1606,0.1618,0.1635,0.1661,0.1672,0.1679,0.1699,0.1709,0.1718,0.1721,0.1736,0.1728,0.1746,0.175,0.1781,0.1777,0.1782,0.1813,0.1847,0.1855,0.1862,0.1892,0.1901,0.1788,0.1788,0.1788,0,0.1593,0.1609,0.1623,0.1644,0.166,0.1674,0.1695,0.1708,0.1724,0.1739,0.1728,0.1753,0.1748,0.1788,0.1804,0.1796,0.181,0.1788,0.1856,0.1863,0.1869,0.1897,0.1907,0.1791,0.1791,0.1791,0.179,0,0.1607,0.162,0.1629,0.1661,0.1679,0.1696,0.1726,0.1743,0.1752,0.177,0.1803,0.1804,0.1823,0.1832,0.1824,0.1877,0.1872,0.1859,0.1839,0.1883,0.1909,0.1919,0.1796,0.1795,0.1794,0.1793,0,0,0.1584,0.163,0.1632,0.1652,0.1689,0.1707,0.1742,0.178,0.181,0.1824,0.1864,0.1882,0.1889,0.1894,0.19,0.1927,0.1991,0.1914,0.1914,0.1946,0.2068,0.2078,0.2088,0.1993,0.1995,0.1996,0.2073,0,0.159,0.1629,0.1651,0.1686,0.171,0.1739,0.1771,0.1809,0.1837,0.1877,0.1901,0.1932,0.1913,0.193,0.1958,0.1981,0.2015,0.1971,0.2018,0.2019,0.2025,0.2099,0.2061,0.2128,0.2082,0.2084,0.2085,0,0.1598,0.1625,0.1661,0.1709,0.1722,0.1746,0.1804,0.1833,0.1897,0.1923,0.1964,0.198,0.203,0.2002,0.2068,0.2042,0.2058,0.2071,0.2074,0.2065,0.2046,0.2074,0.2146,0.2106,0.2098,0.2097,0.2096,0,0.1582,0.1629,0.1657,0.1674,0.1732,0.1757,0.1784,0.1847,0.1888,0.1954,0.1994,0.2044,0.2081,0.2106,0.2134,0.2107,0.2205,0.2171,0.2196,0.2197,0.2163,0.2158,0.2202,0.2219,0.2219,0.2219,0.2219,0,0.158,0.1602,0.1652,0.1671,0.1707,0.175,0.1798,0.1838,0.1913,0.197,0.2013,0.2076,0.2109,0.2166,0.217,0.2225,0.2239,0.2219,0.2227,0.2184,0.218,0.2141,0.2106,0.2222,0.2221,0.2221,0.222,0,0.1559,0.1592,0.1628,0.1686,0.1702,0.1727,0.1798,0.1842,0.1911,0.1989,0.2016,0.2121,0.22,0.2235,0.2294,0.2285,0.2279,0.2333,0.2282,0.2282,0.225,0.222,0.2215,0.2134,0.2373,0.2373,0.2374,0,0.155,0.1568,0.1626,0.1649,0.1674,0.1717,0.1754,0.1829,0.1882,0.2019,0.2063,0.2175,0.2261,0.2366,0.2384,0.2419,0.2327,0.2378,0.2315,0.2265,0.2237,0.2165,0.209,0.2298,0.2298,0.2298,0.2298,0,0.1533,0.1555,0.1588,0.1634,0.1672,0.171,0.1768,0.1812,0.1909,0.1988,0.2108,0.2192,0.233,0.238,0.2439,0.2438,0.2292,0.2379,0.2343,0.2203,0.2111,0.2031,0.2226,0.2298,0.2298,0.2298,0.2298,0.2298,0.1515,0.153,0.1578,0.1614,0.1655,0.1693,0.1706,0.1787,0.1863,0.1958,0.208,0.2175,0.2299,0.2401,0.2406,0.2379,0.2325,0.2303,0.2278,0.2217,0.2111,0.2311,0.2379,0.238,0.238,0.238,0.2381,0,0.1489,0.1517,0.1555,0.1594,0.1615,0.1651,0.1708,0.1716,0.1775,0.1894,0.1982,0.2117,0.2208,0.2286,0.2337,0.2279,0.2179,0.2215,0.2095,0.2026,0.2233,0.2202,0.2216,0.2216,0.2216,0.2216,0.2216,0.2217,0.148,0.1501,0.1519,0.1537,0.1562,0.1555,0.1568,0.1598,0.1663,0.1752,0.1831,0.192,0.2126,0.2313,0.2297,0.2229,0.2029,0.201,0.1944,0.2095,0.21,0.2105,0.2069,0.2055,0.2055,0.1678,0.1676,0.1674]},{"header":{"parameterUnit":"m.s-1","parameterCategory":2,"la1":30.2991,"la2":30.254,"lo1":-89.0895,"lo2":-89.0444,"dy":0.0017,"dx":0.0017,"nx":28,"ny":28,"refTime":"2025-11-30T03:00:00:Z","depth":"0","parameterNumber":3,"parameterNumberName":"V-component_of_CURRENTS"},"data":[0,0,0,0,0,0,0,0,0,0,0,0,0,0,0,0,0,0,0,0,0,0,0,0,0,0,0,0,0,0,0,0,0,0,0,0,0,0,0,0,0,0,0,0,0,0,0,0,0,0,0,0,0,0,0,0,0,0,-0.0498,-0.0498,0,-0.0573,-0.0574,-0.0575,-0.0629,-0.0629,-0.063,-0.063,-0.0692,-0.0693,-0.0695,0,0,0,0,0,0,0,0,0,0,0,0,0,-0.0409,-0.041,-0.0498,-0.0498,-0.0499,-0.0573,-0.0574,-0.0575,-0.0629,-0.0629,-0.063,-0.063,-0.0692,-0.0693,-0.0695,0,0,0,0,0,0,0,0,0,0,0,0,0,-0.0464,-0.0411,-0.0497,-0.0533,-0.0537,-0.0572,-0.0574,-0.0576,-0.0629,-0.0629,-0.063,-0.063,-0.0691,-0.0693,-0.0695,-0.0702,0,0,-0.0702,-0.0703,0,0,0,0,0,0,0,0,-0.0461,-0.0468,-0.0527,-0.0531,-0.0535,-0.059,-0.0565,-0.0616,-0.0629,-0.0597,-0.063,-0.063,-0.0655,-0.066,-0.0677,-0.0705,-0.0707,-0.0702,-0.0703,-0.0704,-0.0705,0,0,0,0,0,0,0,-0.0457,-0.0465,-0.053,-0.0528,-0.0533,-0.0548,-0.0556,-0.0575,-0.0624,-0.06,-0.0603,-0.0607,-0.0657,-0.0675,-0.0679,-0.0708,-0.0702,-0.0704,-0.0705,-0.0706,-0.0743,-0.0743,0,0,0,0,0,0,-0.0442,-0.0461,-0.0527,-0.0532,-0.0495,-0.0549,-0.0558,-0.0574,-0.0625,-0.0632,-0.0607,-0.061,-0.0671,-0.0676,-0.0681,-0.068,-0.0704,-0.0706,-0.0707,-0.0744,-0.0743,-0.0743,0,0,0,0,0,0,-0.044,-0.0448,-0.0524,-0.0495,-0.0506,-0.055,-0.0567,-0.0575,-0.059,-0.063,-0.0638,-0.0613,-0.0671,-0.0678,-0.0693,-0.0683,-0.0707,-0.0709,-0.0744,-0.0744,-0.0743,-0.0686,0,0,0,0,0,0,-0.0438,-0.0447,-0.0453,-0.0495,-0.0507,-0.0541,-0.0566,-0.0576,-0.0591,-0.0595,-0.0637,-0.0644,-0.0672,-0.069,-0.0695,-0.0687,-0.0711,-0.0744,-0.0744,-0.0743,-0.0688,-0.0683,-0.0679,0,0,0,0,0,-0.0434,-0.044,-0.0454,-0.0461,-0.0515,-0.054,-0.0548,-0.0581,-0.0591,-0.0596,-0.0622,-0.0642,-0.069,-0.0691,-0.0698,-0.069,-0.0745,-0.0744,-0.0743,-0.069,-0.0684,-0.068,0,0,0,0,0,0,-0.0404,-0.0447,-0.0463,-0.0481,-0.0505,-0.0548,-0.0554,-0.0574,-0.06,-0.06,-0.0638,-0.0646,-0.0657,-0.068,-0.068,-0.0699,-0.0721,-0.0722,-0.0678,-0.0673,-0.0669,-0.0655,-0.0713,0,0,0,0,0,-0.0398,-0.0416,-0.0454,-0.0466,-0.0475,-0.0512,-0.0526,-0.0546,-0.0573,-0.0586,-0.0615,-0.0642,-0.066,-0.0671,-0.0695,-0.0703,-0.0721,-0.0703,-0.0698,-0.0694,-0.0688,-0.0712,-0.0709,-0.0741,-0.0741,-0.0741,0,0,-0.0389,-0.0414,-0.0424,-0.046,-0.0482,-0.0491,-0.0522,-0.0536,-0.0541,-0.0586,-0.0601,-0.0628,-0.0659,-0.0671,-0.0677,-0.0688,-0.0693,-0.0693,-0.069,-0.0686,-0.0711,-0.0708,-0.0705,-0.074,-0.074,-0.0741,0,0,-0.0371,-0.04,-0.0404,-0.0422,-0.0448,-0.0471,-0.047,-0.0508,-0.0521,-0.0537,-0.0568,-0.0586,-0.0621,-0.0642,-0.0655,-0.064,-0.067,-0.0648,-0.0615,-0.0638,-0.0635,-0.0633,-0.0642,-0.0642,-0.0646,-0.0646,-0.0646,0,-0.0354,-0.037,-0.0406,-0.041,-0.0416,-0.0456,-0.0451,-0.0472,-0.051,-0.0513,-0.0533,-0.0578,-0.0606,-0.0613,-0.0611,-0.0629,-0.0644,-0.063,-0.0631,-0.063,-0.0629,-0.0639,-0.0639,-0.0643,-0.0643,-0.0644,-0.0644,0,-0.034,-0.0349,-0.0349,-0.037,-0.0381,-0.0383,-0.0412,-0.0423,-0.0442,-0.0465,-0.0479,-0.0521,-0.0547,-0.0559,-0.0581,-0.0585,-0.0597,-0.0622,-0.0642,-0.0622,-0.0634,-0.0635,-0.0639,-0.064,-0.0641,-0.0641,0,0,-0.0305,-0.0332,-0.0331,-0.0326,-0.0357,-0.0359,-0.0363,-0.0376,-0.0368,-0.0411,-0.0406,-0.0446,-0.0473,-0.049,-0.0522,-0.0543,-0.0548,-0.0575,-0.0578,-0.0578,-0.0588,-0.0593,-0.0595,-0.0575,-0.0575,-0.0575,-0.0595,0,-0.0277,-0.0271,-0.0293,-0.0276,-0.0273,-0.0301,-0.0299,-0.0315,-0.0335,-0.0344,-0.0386,-0.0399,-0.0445,-0.0453,-0.0482,-0.0532,-0.055,-0.0539,-0.0613,-0.0614,-0.0617,-0.0596,-0.0621,-0.0641,-0.0596,-0.0597,-0.0597,0,-0.025,-0.0249,-0.023,-0.0225,-0.0223,-0.0219,-0.0212,-0.0215,-0.0242,-0.0257,-0.0286,-0.0323,-0.0356,-0.0401,-0.0473,-0.0465,-0.0519,-0.0561,-0.0563,-0.0589,-0.0621,-0.0657,-0.0645,-0.0807,-0.0599,-0.0599,-0.0598,0,-0.0204,-0.0199,-0.0178,-0.0179,-0.0185,-0.0171,-0.0171,-0.0187,-0.0175,-0.0202,-0.0199,-0.0256,-0.0276,-0.0353,-0.0445,-0.0459,-0.0525,-0.0558,-0.061,-0.0611,-0.0657,-0.0661,-0.0806,-0.0607,-0.0607,-0.0607,-0.0607,0,-0.0168,-0.0147,-0.0152,-0.0141,-0.0103,-0.0122,-0.0086,-0.0099,-0.0101,-0.0079,-0.0149,-0.0142,-0.0266,-0.0322,-0.0416,-0.0509,-0.0504,-0.0595,-0.0616,-0.0636,-0.0638,-0.0802,-0.0879,-0.0607,-0.0607,-0.0607,-0.0607,0,-0.0124,-0.0132,-0.0103,-0.0093,-0.0084,-0.0057,-0.0032,-0.0007,-0.002,0.0008,0.0005,-0.0053,-0.0127,-0.0247,-0.0368,-0.046,-0.0648,-0.0591,-0.0597,-0.0618,-0.0817,-0.0889,-0.1041,-0.1118,-0.0648,-0.0649,-0.0649,0,-0.0103,-0.0087,-0.0063,-0.0039,-0.0031,0.0004,0.003,0.003,0.0062,0.0069,0.0093,0.0032,-0.0001,-0.0178,-0.0356,-0.0513,-0.066,-0.0638,-0.0674,-0.0826,-0.0922,-0.0987,-0.1045,-0.071,-0.0711,-0.0711,-0.0712,0,-0.0059,-0.0053,-0.0029,0.0014,0.005,0.0091,0.0132,0.0171,0.0182,0.0212,0.0242,0.0219,0.0041,-0.0128,-0.0354,-0.0484,-0.0768,-0.0653,-0.0822,-0.0986,-0.1056,-0.114,-0.0692,-0.0717,-0.0716,-0.0716,-0.0716,-0.0716,-0.0021,0.0001,0.0028,0.0074,0.0117,0.0175,0.0213,0.0271,0.0333,0.0385,0.0364,0.035,0.0077,-0.0235,-0.0433,-0.0823,-0.0808,-0.0942,-0.1014,-0.1064,-0.1152,-0.07,-0.0743,-0.0743,-0.0743,-0.0742,-0.0742,0,0.0024,0.0042,0.0085,0.0136,0.0187,0.0199,0.0279,0.0318,0.0402,0.0462,0.0493,0.0335,0.0002,-0.0357,-0.0855,-0.113,-0.1256,-0.1297,-0.1421,-0.1461,-0.1075,-0.1093,-0.12,-0.12,-0.12,-0.12,-0.12,-0.12,0.0047,0.0091,0.0106,0.0184,0.0222,0.0284,0.0327,0.0397,0.045,0.0489,0.0472,0.043,0.0048,-0.0752,-0.1396,-0.1531,-0.1753,-0.1784,-0.1883,-0.1652,-0.1626,-0.16,-0.1638,-0.1858,-0.1859,-0.2261,-0.2265,-0.2268]}],[{"header":{"parameterUnit":"m.s-1","parameterCategory":2,"la1":30.2991,"la2":30.254,"lo1":-89.0895,"lo2":-89.0444,"dy":0.0017,"dx":0.0017,"nx":28,"ny":28,"refTime":"2025-11-30T03:00:00:Z","depth":"2","parameterNumber":2,"parameterNumberName":"U-component_of_CURRENTS"},"data":[0,0,0,0,0,0,0,0,0,0,0,0,0,0,0,0,0,0,0,0,0,0,0,0,0,0,0,0,0,0,0,0,0,0,0,0,0,0,0,0,0,0,0,0,0,0,0,0,0,0,0,0,0,0,0,0,0,0,0.1697,0.1698,0,0.1717,0.1717,0.1717,0.1723,0.1723,0.1723,0.1724,0.1695,0.1694,0.1693,0,0,0,0,0,0,0,0,0,0,0,0,0,0.1661,0.1662,0.1697,0.1698,0.1698,0.1717,0.1717,0.1717,0.1723,0.1723,0.1724,0.1724,0.1696,0.1694,0.1693,0,0,0,0,0,0,0,0,0,0,0,0,0,0.1676,0.1662,0.1697,0.1706,0.1707,0.1717,0.1717,0.1717,0.1723,0.1723,0.1724,0.1724,0.1696,0.1695,0.1693,0.1679,0,0,0.1689,0.1688,0,0,0,0,0,0,0,0,0.1675,0.1676,0.1704,0.1705,0.1707,0.1721,0.1694,0.1703,0.1723,0.1714,0.1724,0.1724,0.1701,0.1699,0.1699,0.1678,0.1676,0.1689,0.1688,0.1687,0.1687,0,0,0,0,0,0,0,0.1674,0.1676,0.1702,0.1705,0.1706,0.1708,0.171,0.1696,0.1702,0.1714,0.1716,0.1723,0.1701,0.17,0.1698,0.1676,0.1689,0.1688,0.1687,0.1686,0.1689,0.1689,0,0,0,0,0,0,0.1678,0.1675,0.1701,0.1703,0.1695,0.1709,0.1711,0.1713,0.1703,0.1703,0.1723,0.1723,0.1702,0.17,0.1697,0.1723,0.1687,0.1686,0.1685,0.1688,0.1689,0.169,0,0,0,0,0,0,0.1677,0.1679,0.17,0.1692,0.1695,0.1709,0.1712,0.1714,0.1716,0.1711,0.1709,0.1724,0.1702,0.1699,0.1695,0.172,0.1685,0.1684,0.1687,0.1688,0.1689,0.1747,0,0,0,0,0,0,0.1675,0.1679,0.1676,0.1692,0.1696,0.1711,0.1712,0.1714,0.1721,0.1722,0.1711,0.1709,0.1702,0.1697,0.1694,0.1718,0.1683,0.1685,0.1687,0.1689,0.1744,0.175,0.1755,0,0,0,0,0,0.1674,0.1673,0.1676,0.1679,0.1694,0.1712,0.1713,0.1722,0.1721,0.1724,0.1721,0.1709,0.1706,0.1696,0.1692,0.1716,0.1685,0.1687,0.1689,0.1741,0.1749,0.1755,0,0,0,0,0,0,0.1651,0.1674,0.1678,0.1682,0.1698,0.1714,0.1718,0.1722,0.1722,0.1722,0.1712,0.1709,0.1719,0.1705,0.1695,0.1723,0.1697,0.1698,0.1738,0.1745,0.1751,0.175,0.1682,0,0,0,0,0,0.1646,0.1653,0.1675,0.1678,0.1688,0.1701,0.1707,0.1717,0.1723,0.1723,0.1718,0.1717,0.1723,0.1723,0.172,0.1726,0.1729,0.1741,0.1747,0.1752,0.1749,0.1783,0.1792,0.1696,0.1696,0.1696,0,0,0.1637,0.1651,0.1654,0.1674,0.1686,0.1705,0.1705,0.172,0.1737,0.1718,0.1731,0.1731,0.1728,0.1745,0.1748,0.1737,0.1783,0.1755,0.1759,0.1753,0.1786,0.1795,0.1804,0.1698,0.1698,0.1697,0,0,0.1634,0.1638,0.165,0.1666,0.1692,0.1704,0.171,0.173,0.174,0.175,0.1753,0.1768,0.1761,0.178,0.1785,0.1816,0.1811,0.1817,0.1847,0.188,0.1888,0.1896,0.1924,0.1933,0.1822,0.1822,0.1822,0,0.1624,0.164,0.1654,0.1676,0.1691,0.1706,0.1726,0.174,0.1756,0.1771,0.176,0.1786,0.1782,0.1822,0.1838,0.183,0.1844,0.1823,0.1889,0.1896,0.1902,0.1929,0.1938,0.1825,0.1825,0.1825,0.1824,0,0.1638,0.1651,0.166,0.1692,0.171,0.1727,0.1757,0.1774,0.1784,0.1802,0.1835,0.1837,0.1856,0.1866,0.1858,0.1911,0.1904,0.1892,0.1873,0.1915,0.1941,0.195,0.183,0.1828,0.1828,0.1827,0,0,0.1615,0.1661,0.1663,0.1683,0.1721,0.1739,0.1773,0.1812,0.1841,0.1856,0.1896,0.1916,0.1922,0.1928,0.1933,0.196,0.2022,0.1946,0.1947,0.1977,0.2097,0.2099,0.2109,0.2025,0.2026,0.2027,0.2101,0,0.1621,0.1659,0.1682,0.1716,0.174,0.1769,0.1802,0.184,0.1868,0.1909,0.1934,0.1964,0.1947,0.1963,0.1991,0.2013,0.2046,0.2003,0.2048,0.2049,0.2048,0.2119,0.1922,0.1971,0.2109,0.2111,0.2112,0,0.1627,0.1655,0.1691,0.1739,0.1752,0.1775,0.1834,0.1864,0.1928,0.1955,0.1995,0.2012,0.2062,0.2034,0.2099,0.2074,0.2088,0.21,0.2104,0.2088,0.2067,0.1948,0.1982,0.2126,0.2125,0.2124,0.2123,0,0.1611,0.1657,0.1685,0.1702,0.1761,0.1786,0.1813,0.1877,0.1918,0.1985,0.2025,0.2075,0.2112,0.2136,0.2162,0.2137,0.2231,0.2199,0.2216,0.2216,0.2046,0.2029,0.2246,0.2246,0.2246,0.2245,0.2245,0,0.1608,0.1629,0.168,0.1698,0.1734,0.1778,0.1826,0.1867,0.1942,0.2,0.2043,0.2105,0.2139,0.2195,0.2197,0.2247,0.2264,0.2237,0.2244,0.2063,0.2047,0.217,0.216,0.2248,0.2248,0.2247,0.2246,0,0.1585,0.1619,0.1654,0.1712,0.1729,0.1753,0.1825,0.1869,0.1938,0.2018,0.2044,0.2149,0.2226,0.2259,0.2317,0.2304,0.2337,0.2345,0.2134,0.2115,0.2287,0.2279,0.2373,0.2374,0.2375,0.2375,0.2376,0,0.1575,0.1593,0.1651,0.1675,0.17,0.1743,0.178,0.1855,0.1909,0.2045,0.2089,0.22,0.228,0.2377,0.2358,0.2379,0.2394,0.221,0.2128,0.2308,0.2305,0.2296,0.2287,0.1923,0.1919,0.1917,0.1915,0,0.1557,0.158,0.1613,0.1658,0.1696,0.1734,0.1792,0.1835,0.1933,0.2009,0.2126,0.2205,0.2307,0.2257,0.2294,0.2271,0.2189,0.2161,0.2406,0.1935,0.1893,0.1887,0.1891,0.1891,0.1893,0.1895,0.1896,0.1897,0.1538,0.1554,0.1601,0.1637,0.1678,0.1716,0.1728,0.1801,0.1873,0.194,0.2066,0.209,0.2118,0.2085,0.2043,0.1993,0.2143,0.2016,0.2019,0.2026,0.1975,0.1938,0.1934,0.1937,0.1939,0.1941,0.1943,0,0.1509,0.154,0.1577,0.1616,0.1632,0.1673,0.1729,0.1719,0.1763,0.1827,0.1886,0.174,0.1737,0.1761,0.1664,0.1695,0.1625,0.1616,0.1486,0.1513,0.1536,0.1454,0.1278,0.1276,0.1274,0.1272,0,0,0.15,0.152,0.1538,0.1552,0.1578,0.1562,0.1574,0.1572,0.1589,0.1561,0.153,0.1621,0.1709,0.1443,0.1438,0.1344,0.1408,0.1292,0.1829,0.1702,0.1722,0.178,0.1688,0,0,0,0,0]},{"header":{"parameterUnit":"m.s-1","parameterCategory":2,"la1":30.2991,"la2":30.254,"lo1":-89.0895,"lo2":-89.0444,"dy":0.0017,"dx":0.0017,"nx":28,"ny":28,"refTime":"2025-11-30T03:00:00:Z","depth":"2","parameterNumber":3,"parameterNumberName":"V-component_of_CURRENTS"},"data":[0,0,0,0,0,0,0,0,0,0,0,0,0,0,0,0,0,0,0,0,0,0,0,0,0,0,0,0,0,0,0,0,0,0,0,0,0,0,0,0,0,0,0,0,0,0,0,0,0,0,0,0,0,0,0,0,0,0,-0.0412,-0.0413,0,-0.0486,-0.0487,-0.0488,-0.0546,-0.0547,-0.0547,-0.0547,-0.0607,-0.0609,-0.061,0,0,0,0,0,0,0,0,0,0,0,0,0,-0.0327,-0.0328,-0.0412,-0.0413,-0.0413,-0.0485,-0.0487,-0.0488,-0.0546,-0.0547,-0.0547,-0.0547,-0.0607,-0.0608,-0.061,0,0,0,0,0,0,0,0,0,0,0,0,0,-0.0381,-0.0329,-0.0412,-0.0449,-0.0453,-0.0485,-0.0487,-0.0488,-0.0546,-0.0547,-0.0547,-0.0548,-0.0606,-0.0608,-0.061,-0.0612,0,0,-0.0616,-0.0617,0,0,0,0,0,0,0,0,-0.0378,-0.0385,-0.0443,-0.0446,-0.0451,-0.0505,-0.0479,-0.0528,-0.0546,-0.0514,-0.0547,-0.0548,-0.057,-0.0575,-0.0591,-0.0615,-0.0617,-0.0616,-0.0617,-0.0618,-0.0619,0,0,0,0,0,0,0,-0.0374,-0.0382,-0.0444,-0.0443,-0.0448,-0.0464,-0.0472,-0.0489,-0.054,-0.0516,-0.052,-0.0524,-0.0572,-0.0589,-0.0593,-0.0618,-0.0616,-0.0618,-0.0619,-0.062,-0.0654,-0.0653,0,0,0,0,0,0,-0.0359,-0.0378,-0.0441,-0.0446,-0.0412,-0.0465,-0.0474,-0.0489,-0.054,-0.0548,-0.0523,-0.0526,-0.0586,-0.0591,-0.0595,-0.0595,-0.0618,-0.062,-0.0621,-0.0654,-0.0654,-0.0653,0,0,0,0,0,0,-0.0357,-0.0364,-0.0438,-0.0411,-0.0421,-0.0465,-0.0482,-0.049,-0.0507,-0.0545,-0.0553,-0.053,-0.0587,-0.0593,-0.0607,-0.0598,-0.0621,-0.0623,-0.0654,-0.0654,-0.0654,-0.0597,0,0,0,0,0,0,-0.0355,-0.0364,-0.037,-0.041,-0.0422,-0.0455,-0.0481,-0.0491,-0.0507,-0.0512,-0.0553,-0.056,-0.0587,-0.0604,-0.0609,-0.0601,-0.0624,-0.0655,-0.0654,-0.0654,-0.0599,-0.0595,-0.0591,0,0,0,0,0,-0.0352,-0.0357,-0.037,-0.0378,-0.043,-0.0454,-0.0462,-0.0496,-0.0507,-0.0513,-0.0538,-0.0558,-0.0605,-0.0605,-0.0611,-0.0603,-0.0655,-0.0654,-0.0654,-0.0601,-0.0595,-0.0591,0,0,0,0,0,0,-0.0323,-0.0364,-0.038,-0.0398,-0.0422,-0.0463,-0.047,-0.0489,-0.0516,-0.0517,-0.0553,-0.0562,-0.0572,-0.0594,-0.0594,-0.0613,-0.0634,-0.0634,-0.0591,-0.0587,-0.0582,-0.057,-0.0626,0,0,0,0,0,-0.0318,-0.0335,-0.0371,-0.0383,-0.0392,-0.0428,-0.0441,-0.0463,-0.0489,-0.0502,-0.0532,-0.0558,-0.0575,-0.0585,-0.0608,-0.0614,-0.0632,-0.0614,-0.061,-0.0606,-0.0601,-0.0624,-0.0621,-0.0651,-0.0651,-0.0652,0,0,-0.031,-0.0333,-0.0343,-0.0378,-0.0399,-0.0407,-0.0438,-0.0453,-0.0457,-0.0502,-0.0517,-0.0544,-0.0573,-0.0584,-0.0591,-0.0601,-0.0606,-0.0605,-0.0602,-0.0598,-0.0623,-0.062,-0.0617,-0.0651,-0.0651,-0.0651,0,0,-0.0292,-0.032,-0.0324,-0.0341,-0.0366,-0.0388,-0.0388,-0.0425,-0.044,-0.0455,-0.0485,-0.0504,-0.0537,-0.0557,-0.0569,-0.0553,-0.0583,-0.0562,-0.053,-0.0552,-0.055,-0.0548,-0.0557,-0.0557,-0.056,-0.056,-0.056,0,-0.0277,-0.0291,-0.0326,-0.033,-0.0335,-0.0374,-0.0369,-0.0389,-0.0427,-0.0431,-0.0451,-0.0495,-0.0522,-0.0527,-0.0527,-0.0543,-0.0558,-0.0544,-0.0546,-0.0545,-0.0544,-0.0554,-0.0554,-0.0557,-0.0557,-0.0557,-0.0558,0,-0.0262,-0.0271,-0.027,-0.029,-0.03,-0.0303,-0.0329,-0.0341,-0.036,-0.0383,-0.0397,-0.0438,-0.0465,-0.0476,-0.0497,-0.05,-0.0513,-0.0537,-0.0556,-0.0537,-0.0549,-0.055,-0.0553,-0.0554,-0.0555,-0.0555,0,0,-0.0228,-0.0254,-0.0253,-0.0248,-0.0277,-0.0278,-0.0281,-0.0292,-0.0285,-0.0329,-0.0324,-0.0363,-0.0392,-0.0408,-0.0439,-0.0459,-0.0465,-0.0492,-0.0494,-0.0494,-0.0505,-0.0509,-0.0511,-0.0491,-0.0491,-0.0491,-0.0512,0,-0.0201,-0.0195,-0.0216,-0.0198,-0.0193,-0.0221,-0.0217,-0.0232,-0.0252,-0.0261,-0.0303,-0.0316,-0.0363,-0.0372,-0.04,-0.0449,-0.0467,-0.0457,-0.0529,-0.0531,-0.0532,-0.0513,-0.0464,-0.0479,-0.0514,-0.0514,-0.0514,0,-0.0175,-0.0174,-0.0154,-0.0146,-0.0144,-0.0139,-0.0131,-0.0133,-0.0159,-0.0175,-0.0204,-0.0242,-0.0276,-0.032,-0.0393,-0.0385,-0.0438,-0.0479,-0.0481,-0.0506,-0.0537,-0.0506,-0.048,-0.0516,-0.0516,-0.0516,-0.0516,0,-0.0131,-0.0125,-0.0103,-0.0103,-0.0107,-0.0092,-0.0092,-0.0107,-0.0094,-0.0122,-0.0119,-0.0176,-0.0197,-0.0274,-0.0365,-0.0379,-0.0444,-0.0477,-0.0528,-0.0528,-0.0511,-0.051,-0.0525,-0.0525,-0.0525,-0.0525,-0.0525,0,-0.0095,-0.0075,-0.0078,-0.0067,-0.0029,-0.0046,-0.001,-0.0021,-0.0023,-0.0001,-0.007,-0.0063,-0.0188,-0.0243,-0.0336,-0.0428,-0.0424,-0.0513,-0.0534,-0.0489,-0.0486,-0.0544,-0.0546,-0.0526,-0.0526,-0.0525,-0.0525,0,-0.0053,-0.0059,-0.003,-0.002,-0.001,0.0016,0.0043,0.0068,0.0056,0.0085,0.0081,0.0024,-0.0051,-0.0169,-0.0289,-0.0379,-0.0473,-0.0508,-0.0441,-0.0453,-0.055,-0.0549,-0.0566,-0.0566,-0.0566,-0.0566,-0.0567,0,-0.0032,-0.0016,0.0008,0.0032,0.004,0.0075,0.0102,0.0103,0.0137,0.0145,0.0169,0.0108,0.0079,-0.0096,-0.0257,-0.0408,-0.0456,-0.0478,-0.0505,-0.0536,-0.0554,-0.0552,-0.0551,-0.0455,-0.0454,-0.0454,-0.0453,0,0.0012,0.0016,0.0041,0.0083,0.0119,0.0162,0.0204,0.0246,0.0259,0.0291,0.0324,0.0304,0.0141,0.0007,-0.0212,-0.0322,-0.0454,-0.0472,-0.0516,-0.0456,-0.0435,-0.0452,-0.0453,-0.0448,-0.0448,-0.0449,-0.0449,-0.0449,0.0048,0.0071,0.0097,0.0142,0.0186,0.0247,0.0286,0.0355,0.0424,0.0495,0.0465,0.0455,0.0285,0.0029,-0.0169,-0.0398,-0.0407,-0.0482,-0.0483,-0.0484,-0.0471,-0.0452,-0.0465,-0.0466,-0.0467,-0.0467,-0.0467,0,0.0105,0.011,0.0153,0.0204,0.0274,0.0268,0.0352,0.0441,0.0544,0.0584,0.0631,0.0524,0.0351,0.0117,-0.0197,-0.0387,-0.0407,-0.0462,-0.0434,-0.0437,-0.044,-0.0425,-0.0407,-0.0408,-0.0408,-0.0409,0,0,0.0129,0.018,0.0195,0.0286,0.0312,0.0418,0.0466,0.0595,0.0666,0.0753,0.0731,0.0719,0.0425,0.0229,-0.0027,-0.0229,-0.0301,-0.0273,-0.0297,-0.0237,-0.0238,-0.0422,-0.0399,0,0,0,0,0]}],[{"header":{"parameterUnit":"m.s-1","parameterCategory":2,"la1":30.2991,"la2":30.254,"lo1":-89.0895,"lo2":-89.0444,"dy":0.0017,"dx":0.0017,"nx":28,"ny":28,"refTime":"2025-11-30T03:00:00:Z","depth":"4","parameterNumber":2,"parameterNumberName":"U-component_of_CURRENTS"},"data":[0,0,0,0,0,0,0,0,0,0,0,0,0,0,0,0,0,0,0,0,0,0,0,0,0,0,0,0,0,0,0,0,0,0,0,0,0,0,0,0,0,0,0,0,0,0,0,0,0,0,0,0,0,0,0,0,0,0,0.1013,0.1014,0,0.1081,0.1082,0.1083,0.1162,0.1163,0.1163,0.1164,0.1218,0.1219,0.122,0,0,0,0,0,0,0,0,0,0,0,0,0,0.0982,0.0982,0.1013,0.1014,0.1015,0.1081,0.1082,0.1084,0.1162,0.1163,0.1164,0.1165,0.1218,0.1219,0.122,0,0,0,0,0,0,0,0,0,0,0,0,0,0.102,0.0982,0.1013,0.1059,0.1064,0.1081,0.1082,0.1084,0.1161,0.1163,0.1164,0.1165,0.1218,0.1219,0.122,0.1199,0,0,0.1223,0.1223,0,0,0,0,0,0,0,0,0.1018,0.1022,0.1052,0.1056,0.1061,0.1111,0.1091,0.1121,0.1161,0.1128,0.1164,0.1166,0.1178,0.1183,0.1197,0.1202,0.1204,0.1223,0.1223,0.1224,0.1224,0,0,0,0,0,0,0,0.1015,0.1019,0.1044,0.1052,0.1058,0.1086,0.1093,0.1098,0.1147,0.1131,0.1136,0.1138,0.1181,0.1196,0.1199,0.1205,0.1223,0.1224,0.1224,0.1224,0.1312,0.1314,0,0,0,0,0,0,0.0997,0.1017,0.1041,0.1045,0.1039,0.1085,0.1093,0.1097,0.1147,0.1156,0.1136,0.1141,0.1194,0.1198,0.1201,0.1275,0.1224,0.1225,0.1225,0.1311,0.1313,0.1315,0,0,0,0,0,0,0.0996,0.0999,0.1039,0.103,0.1037,0.1084,0.1087,0.1097,0.1134,0.1151,0.116,0.1165,0.1195,0.12,0.1235,0.1274,0.1225,0.1226,0.1308,0.1311,0.1314,0.1361,0,0,0,0,0,0,0.0995,0.0998,0.1015,0.1029,0.1036,0.1059,0.1086,0.1097,0.113,0.1138,0.1178,0.1184,0.1197,0.1234,0.1236,0.1274,0.1227,0.1306,0.131,0.1313,0.1357,0.1365,0.1372,0,0,0,0,0,0.0994,0.1002,0.1015,0.1019,0.1051,0.1059,0.1067,0.1107,0.113,0.1146,0.1184,0.1184,0.1257,0.1235,0.1238,0.1277,0.1305,0.1309,0.1313,0.1354,0.1363,0.1371,0,0,0,0,0,0,0.0997,0.101,0.1026,0.1039,0.1053,0.1071,0.1098,0.1113,0.1156,0.1179,0.1194,0.1202,0.125,0.1253,0.1229,0.1315,0.1285,0.129,0.1316,0.1325,0.1332,0.1325,0.1227,0,0,0,0,0,0.1002,0.1012,0.1026,0.1036,0.1051,0.1077,0.1093,0.1116,0.1143,0.1166,0.1197,0.1235,0.1264,0.1286,0.1309,0.1344,0.1339,0.1376,0.1383,0.1389,0.1387,0.1411,0.142,0.1328,0.1328,0.1328,0,0,0.1009,0.1012,0.1024,0.1038,0.1062,0.1084,0.1093,0.1123,0.115,0.1161,0.1229,0.1255,0.1277,0.1329,0.1352,0.134,0.1416,0.1394,0.1399,0.1393,0.1416,0.1425,0.1433,0.133,0.133,0.133,0,0,0.1013,0.1032,0.1048,0.1061,0.1089,0.1103,0.1112,0.115,0.1186,0.1232,0.1259,0.13,0.1351,0.1376,0.1391,0.1445,0.1448,0.1474,0.1509,0.1534,0.1541,0.1547,0.156,0.1567,0.1483,0.1483,0.1483,0,0.1026,0.1037,0.1053,0.107,0.1089,0.1112,0.1138,0.1168,0.1215,0.1244,0.1263,0.1358,0.1368,0.1425,0.1456,0.1458,0.1479,0.1472,0.1541,0.1548,0.1553,0.1565,0.1572,0.1486,0.1486,0.1485,0.1485,0,0.1034,0.1058,0.1068,0.1099,0.1124,0.1143,0.1182,0.1223,0.1268,0.1295,0.1374,0.1408,0.1461,0.1483,0.1486,0.1547,0.1551,0.1541,0.1514,0.1565,0.1574,0.1581,0.149,0.1489,0.1488,0.1488,0,0,0.1028,0.1067,0.1077,0.1099,0.1142,0.1158,0.1215,0.126,0.1302,0.1369,0.1424,0.1488,0.1518,0.1537,0.1563,0.1592,0.1642,0.1598,0.1598,0.1601,0.1709,0.1619,0.1617,0.1662,0.1663,0.1664,0.1702,0,0.1036,0.1064,0.1088,0.1133,0.1159,0.1201,0.1245,0.1294,0.1349,0.1407,0.1458,0.1522,0.1536,0.1582,0.1612,0.1633,0.1663,0.1633,0.1667,0.1668,0.1573,0.1622,0.1668,0.1706,0.1708,0.1709,0.1709,0,0.1043,0.106,0.1103,0.1153,0.1173,0.1208,0.1288,0.1332,0.1406,0.1456,0.1532,0.1567,0.1631,0.1631,0.17,0.1694,0.1706,0.1719,0.172,0.162,0.1589,0.1645,0.1721,0.172,0.1719,0.1718,0.1718,0,0.1027,0.1074,0.1107,0.1124,0.1184,0.1228,0.1274,0.1355,0.1396,0.15,0.1544,0.1621,0.1673,0.1711,0.174,0.1735,0.1801,0.1783,0.1714,0.1708,0.1755,0.1747,0.1823,0.1823,0.1823,0.1822,0.1822,0,0.1014,0.1045,0.1106,0.1123,0.1173,0.1233,0.1302,0.1364,0.1442,0.1485,0.1576,0.1621,0.1701,0.1742,0.1757,0.1757,0.1815,0.1723,0.1713,0.1776,0.177,0.1759,0.1752,0.1824,0.1824,0.1823,0.1823,0,0.0994,0.1029,0.107,0.114,0.1167,0.1215,0.1303,0.1341,0.1441,0.1503,0.1539,0.1631,0.1693,0.1751,0.1804,0.1769,0.1778,0.1763,0.1831,0.1824,0.1663,0.1658,0.1679,0.1676,0.1673,0.1671,0.167,0,0.0981,0.1,0.1076,0.1102,0.114,0.1211,0.125,0.1341,0.1376,0.1493,0.1505,0.1599,0.1653,0.1651,0.1724,0.1752,0.174,0.1734,0.1691,0.166,0.165,0.1648,0.1646,0.1666,0.1665,0.1665,0.1664,0,0.0956,0.0994,0.1026,0.1076,0.1123,0.1156,0.122,0.1225,0.1325,0.1418,0.1438,0.1473,0.1537,0.1579,0.1624,0.1638,0.1729,0.1708,0.1713,0.1672,0.1645,0.1637,0.1638,0.1656,0.1657,0.1658,0.1658,0,0.0942,0.0956,0.1,0.1036,0.1084,0.1084,0.1123,0.1149,0.1184,0.1301,0.1302,0.141,0.1501,0.152,0.1554,0.1572,0.155,0.1503,0.1518,0.1528,0.1466,0.141,0.1343,0,0,0,0,0,0.0914,0.0918,0.0951,0.0974,0.1015,0.104,0.1089,0.1124,0.1207,0.1185,0.1235,0.1286,0.1341,0.1395,0.1386,0.1509,0.1567,0.1494,0.1522,0.161,0.1619,0.1563,0,0,0,0,0,0,0.0892,0.0923,0.0928,0.0912,0.0917,0.0944,0.097,0.1023,0.1008,0.1104,0.1133,0.1224,0.1291,0.1337,0.1367,0.1388,0.1383,0.1566,0.1563,0.1604,0.1613,0.1621,0.1567,0,0,0,0,0]},{"header":{"parameterUnit":"m.s-1","parameterCategory":2,"la1":30.2991,"la2":30.254,"lo1":-89.0895,"lo2":-89.0444,"dy":0.0017,"dx":0.0017,"nx":28,"ny":28,"refTime":"2025-11-30T03:00:00:Z","depth":"4","parameterNumber":3,"parameterNumberName":"V-component_of_CURRENTS"},"data":[0,0,0,0,0,0,0,0,0,0,0,0,0,0,0,0,0,0,0,0,0,0,0,0,0,0,0,0,0,0,0,0,0,0,0,0,0,0,0,0,0,0,0,0,0,0,0,0,0,0,0,0,0,0,0,0,0,0,0.0248,0.0248,0,0.024,0.024,0.024,0.025,0.025,0.025,0.0251,0.0228,0.0227,0.0226,0,0,0,0,0,0,0,0,0,0,0,0,0,0.0245,0.0245,0.0248,0.0248,0.0248,0.024,0.024,0.024,0.025,0.025,0.0251,0.0251,0.0228,0.0227,0.0226,0,0,0,0,0,0,0,0,0,0,0,0,0,0.0243,0.0245,0.0248,0.0251,0.0251,0.024,0.024,0.024,0.025,0.025,0.0251,0.0251,0.0228,0.0227,0.0226,0.0208,0,0,0.0222,0.0221,0,0,0,0,0,0,0,0,0.0243,0.0243,0.0251,0.0251,0.0251,0.0246,0.0231,0.0229,0.025,0.0251,0.0251,0.0251,0.0232,0.023,0.0229,0.0207,0.0206,0.0222,0.0221,0.022,0.022,0,0,0,0,0,0,0,0.0243,0.0243,0.0245,0.0251,0.0251,0.0244,0.0245,0.023,0.0239,0.0251,0.0251,0.025,0.0232,0.023,0.0228,0.0206,0.0222,0.022,0.022,0.0219,0.0161,0.016,0,0,0,0,0,0,0.0244,0.0244,0.0246,0.0245,0.0248,0.0244,0.0245,0.0248,0.0239,0.0239,0.0249,0.025,0.0232,0.023,0.0227,0.0217,0.022,0.0219,0.0218,0.0162,0.0161,0.016,0,0,0,0,0,0,0.0244,0.0245,0.0246,0.0243,0.0243,0.0244,0.0247,0.0247,0.0243,0.0238,0.0237,0.0244,0.0232,0.0229,0.0216,0.0215,0.0218,0.0217,0.0163,0.0162,0.0161,0.0188,0,0,0,0,0,0,0.0244,0.0245,0.0248,0.0244,0.0243,0.0244,0.0246,0.0247,0.0241,0.0242,0.0234,0.0232,0.0232,0.0218,0.0215,0.0214,0.0216,0.0164,0.0162,0.0161,0.0188,0.0188,0.0188,0,0,0,0,0,0.0244,0.0255,0.0249,0.0249,0.0248,0.0244,0.0243,0.0245,0.024,0.0242,0.0234,0.0232,0.0207,0.0217,0.0213,0.0211,0.0164,0.0163,0.0161,0.0188,0.0188,0.0188,0,0,0,0,0,0,0.0256,0.0256,0.025,0.0259,0.0251,0.0246,0.025,0.024,0.0234,0.0237,0.0226,0.0224,0.0212,0.0201,0.0212,0.0187,0.0184,0.0181,0.0205,0.0205,0.0205,0.0224,0.0215,0,0,0,0,0,0.0258,0.0268,0.0257,0.0264,0.0261,0.025,0.0248,0.0247,0.0239,0.0238,0.0232,0.0218,0.0201,0.0196,0.0184,0.0171,0.0153,0.0164,0.0164,0.0164,0.0174,0.0137,0.0135,0.0155,0.0155,0.0155,0,0,0.0266,0.0266,0.0271,0.0267,0.0263,0.0264,0.0251,0.0252,0.0255,0.0235,0.024,0.022,0.0196,0.0188,0.018,0.0179,0.0147,0.0162,0.0162,0.0173,0.0135,0.0133,0.0131,0.0154,0.0154,0.0154,0,0,0.0284,0.0283,0.0294,0.0289,0.0282,0.0277,0.0274,0.0267,0.0267,0.0255,0.0244,0.0228,0.0199,0.0195,0.0182,0.0171,0.0148,0.0155,0.0174,0.0137,0.0135,0.0134,0.0109,0.0105,0.0156,0.0156,0.0156,0,0.0291,0.03,0.0295,0.0299,0.0299,0.0281,0.0286,0.0283,0.0274,0.0276,0.026,0.0222,0.0206,0.0194,0.019,0.0175,0.0147,0.018,0.0139,0.0137,0.0135,0.0109,0.0105,0.0157,0.0157,0.0157,0.0157,0,0.0311,0.0317,0.0323,0.0325,0.0325,0.0327,0.0319,0.0323,0.0309,0.0301,0.0283,0.0254,0.0232,0.0217,0.0199,0.0178,0.016,0.0144,0.0145,0.0135,0.0108,0.0103,0.0159,0.0158,0.0158,0.0158,0,0,0.0328,0.0335,0.0338,0.0342,0.0337,0.0341,0.035,0.0351,0.0359,0.0334,0.0331,0.0295,0.0274,0.0258,0.023,0.0199,0.016,0.0165,0.0162,0.0151,0.0077,0.0064,0.0057,0.0127,0.0126,0.0125,0.0064,0,0.0341,0.0358,0.0357,0.0374,0.038,0.0375,0.0384,0.0387,0.0378,0.0375,0.0339,0.0321,0.0289,0.0271,0.0235,0.0182,0.0146,0.0178,0.0078,0.0076,0.0075,0.005,0.0123,0.006,0.0059,0.0058,0.0057,0,0.0354,0.0365,0.0383,0.0399,0.0402,0.0411,0.0428,0.0434,0.0431,0.042,0.0397,0.0364,0.0328,0.0289,0.02,0.0216,0.0149,0.0102,0.0098,0.0077,0.0053,0.007,0.0047,0.0048,0.0049,0.005,0.005,0,0.0367,0.0383,0.0401,0.0404,0.0418,0.0433,0.0443,0.0451,0.0468,0.0451,0.0449,0.0396,0.0367,0.028,0.0187,0.0183,0.0078,0.0063,-0.0009,-0.0011,0.001,0.0012,-0.0012,-0.0012,-0.0012,-0.0012,-0.0012,0,0.0375,0.0392,0.041,0.042,0.0449,0.0452,0.0485,0.0488,0.0499,0.052,0.0472,0.0467,0.0358,0.0288,0.0194,0.0081,0.0081,-0.0006,-0.003,0.0022,0.0026,0.0006,0.0009,-0.0014,-0.0014,-0.0013,-0.0013,0,0.0386,0.0394,0.042,0.0444,0.0455,0.0478,0.0519,0.0547,0.0546,0.0569,0.0563,0.0516,0.0427,0.0317,0.0179,0.0098,-0.0012,-0.0058,0.0016,-0.0003,-0.0077,-0.0072,-0.0138,-0.0139,-0.014,-0.014,-0.0141,0,0.0392,0.0406,0.0444,0.0466,0.048,0.0517,0.055,0.0569,0.0601,0.0602,0.0615,0.0542,0.0493,0.0304,0.0179,-0.0001,-0.0034,-0.0097,-0.0096,-0.0074,-0.0092,-0.0085,-0.0079,-0.0142,-0.0143,-0.0143,-0.0143,0,0.0408,0.0425,0.0451,0.0496,0.0534,0.0579,0.0624,0.065,0.0673,0.0671,0.065,0.0553,0.0454,0.031,0.0164,0.0035,-0.0057,-0.0107,-0.0106,-0.0105,-0.0081,-0.0096,-0.0089,-0.0146,-0.0146,-0.0145,-0.0145,0,0.0429,0.0451,0.0489,0.0527,0.0577,0.0628,0.0648,0.068,0.0704,0.0698,0.0691,0.0581,0.0519,0.0329,0.02,0.0067,0.0031,-0.0023,-0.0027,-0.0026,0.002,0.0069,0.0028,0,0,0,0,0,0.0446,0.0475,0.0517,0.0562,0.0612,0.0643,0.0697,0.0715,0.0732,0.0721,0.0705,0.0611,0.0422,0.0351,0.0216,0.0179,0.0006,0.0015,-0.0059,-0.0163,-0.0159,-0.0126,0,0,0,0,0,0,0.046,0.0504,0.0522,0.0584,0.0621,0.0684,0.0721,0.0733,0.0725,0.0718,0.0627,0.0567,0.0394,0.0501,0.0212,0.0173,0.0103,-0.0072,-0.0076,-0.0165,-0.0162,-0.0159,-0.0124,0,0,0,0,0]}]]